Location: Unspecified
(52.4292°N, 19.3359°E)
Time: 23:24:28
(UTC+02:00)

A-11 Canister half - Pass Details

Date: 18 May 2024
Orbit: 1524 x 1683 km, 47.3° (Epoch: 19 June)

Event Time Altitude Azimuth Distance (km) Brightness Sun altitude
Rises 22:09:52 0° 207° (SSW) 4,686 11.3 -10.8°
Reaches altitude 10° 22:13:18 10° 198° (SSW) 3,721 10.7 -11.1°
Maximum altitude 22:21:11 31° 140° (SE) 2,479 9.6 -11.8°
Drops below altitude 10° 22:29:17 10° 83° (E) 3,833 10.8 -12.4°
Sets 22:32:52 0° 74° (ENE) 4,846 11.5 -12.7°
